Location: Banios
(43.0451°N, 0.2335°E)
Time: 12:55:06
(UTC+00:00)

A-11 Canister half - Pass Details

Date: 09 May 2021
Orbit: 1513 x 1686 km, 47.2° (Epoch: 14 June)

Event Time Altitude Azimuth Distance (km) Brightness Sun altitude
Rises 12:51:54 0° 173° (S) 4,677 11.9 61.8°
Reaches altitude 10° 12:57:11 10° 149° (SSE) 3,677 11.3 61.3°
Maximum altitude 13:01:02 13° 123° (ESE) 3,413 11.0 60.9°
Drops below altitude 10° 13:04:52 10° 98° (E) 3,670 11.0 60.5°
Sets 13:10:04 0° 74° (ENE) 4,661 11.3 60.0°
